Home > Weather > Ipswich > Past weeks

Flag for United Kingdom Past Weather in Ipswich, England, United Kingdom — Yesterday and Last 2 Weeks

Now
66 °F

Broken clouds.


Feels Like: 66 °F
Forecast: 56 / 71 °F
Wind: 15 mph from West

Location: Wattisham

Current Time: Jul 27, 2016 at 12:47:44 PM

Latest Report: Jul 27, 2016 at 11:50 AM


Visibility: N/A

Pressure: 29.95 "Hg

Humidity: 88%

Dew Point: 63 °F

Location of IpswichLocation

Past Weather in Ipswich — Graph

°F

Ipswich Temperature Yesterday

Maximum temperature yesterday: 70 °F (at 11:50 AM)
Minimum temperature yesterday: 55 °F (at 5:50 AM)
Average temperature yesterday: 64 °F

High & Low Weather Summary for the Past Weeks

 TemperatureHumidityPressure
High82 °F (Jul 19, 12:50 PM)100% (Jul 15, 12:50 AM)30.30 "Hg (Jul 15, 12:50 AM)
Low48 °F (Jul 14, 3:50 AM)34% (Jul 18, 12:50 PM)29.74 "Hg (Jul 20, 8:50 AM)
Average65 °F74%30.08 "Hg
* Reported Jul 12 10:50 AM — Jul 27 10:50 AM, Ipswich, Weather by CustomWeather, © 2016

Note: Actual official high and low records may vary slightly from our data, if they occured in-between our weather recording intervals... More about our weather records

Advertising

Ipswich Weather History for the Previous 24 Hours

Scroll right to see more
 ConditionsComfort  
Time TempWeatherWind HumidityBarometerVisibility
10:50 AM
Wed, Jul 27
64 °FDrizzle. More clouds than sun.12 mph94%29.95 "Hg3 mi
9:50 AM63 °FRain. Mostly cloudy.12 mph94%29.95 "Hg3 mi
8:50 AM61 °FDrizzle. Mostly cloudy.10 mph100%29.95 "Hg3 mi
7:50 AM63 °FLight rain. More clouds than sun.12 mph88%29.95 "Hg5 mi
6:50 AM61 °FBroken clouds.10 mph94%29.95 "HgN/A
5:50 AM61 °FLight rain. Passing clouds.10 mph88%29.98 "HgN/A
4:50 AM61 °FClear.7 mph88%29.98 "Hg10 mi
3:50 AM61 °FClear.8 mph83%30.01 "Hg10 mi
2:50 AM61 °FMostly cloudy.6 mph83%30.01 "HgN/A
1:50 AM61 °FPassing clouds.7 mph83%30.04 "HgN/A
12:50 AM63 °FClear.5 mph73%30.04 "Hg10 mi
11:50 PM
Tue, Jul 26
63 °FClear.6 mph77%30.07 "Hg10 mi
10:50 PM64 °FClear.6 mph68%30.07 "Hg10 mi
9:50 PM64 °FSunny.6 mph73%30.09 "Hg10 mi
8:50 PM64 °FSunny.6 mph73%30.09 "Hg10 mi
7:50 PM66 °FSunny.8 mph64%30.09 "Hg10 mi
6:50 PM68 °FPartly sunny.9 mph60%30.09 "HgN/A
5:50 PM70 °FPartly sunny.10 mph57%30.09 "HgN/A
4:50 PM70 °FPartly sunny.9 mph53%30.09 "HgN/A
3:50 PM70 °FPartly sunny.9 mph53%30.09 "HgN/A
2:50 PM70 °FBroken clouds.8 mph57%30.12 "HgN/A
1:50 PM70 °FPartly sunny.9 mph53%30.12 "HgN/A
12:50 PM70 °FBroken clouds.7 mph53%30.12 "HgN/A
Weather by CustomWeather, © 2016

See weather overviewHow to use our weather pages